Weather History for Lexington, NC

Change the Weather History Date:

Sunday, September 15, 2013

  Actual Average (KINT) Record (KINT)
Temperature  
Mean Temperature 64 °F -  
Max Temperature 78 °F 77 °F 95 °F (1991)
Min Temperature 51 °F 59 °F 40 °F (1985)
Growing Degree Days 14 (Base 50)    
Moisture  
Dew Point 58 °F    
Average Humidity 86    
Maximum Humidity 100    
Minimum Humidity 56    
Precipitation  
Precipitation 0.00 in - - ()
Sea Level Pressure  
Sea Level Pressure 30.18 in    
Wind  
Wind Speed 0 mph (SE)    
Max Wind Speed 5 mph    
Max Gust Speed -    
Visibility 10 miles    
Events      
Averages and records for this station are not official NWS values.
T = Trace of Precipitation, MM = Missing Value Source: NWS Daily Summary

Daily Weather History Graph

Daily Weather History Graph

Search for Another Location

Airport:

Trip Planner

Search our weather history database for the weather conditions in past years. The results will help you decide how hot, cold, wet, or windy it might be!

Date:

Astronomy

Sep. 15, 2013 Rise Set
Actual Time 7:04 AM EDT 7:28 PM EDT
Civil Twilight 6:38 AM EDT 7:53 PM EDT
Nautical Twilight 6:08 AM EDT 8:23 PM EDT
Astronomical Twilight 5:37 AM EDT 8:54 PM EDT
Moon 4:48 PM EDT (9/15) 2:47 AM EDT (9/15)
Length of Visible Light 13h 15m
Length of Day
12h 24m
Waxing Gibbous, 82% of the Moon is Illuminated
Sep 15
Waxing Gibbous
Sep 19
Full
Sep 26
Last Quarter
Oct 4
New
Oct 11
First Quarter

Hourly Weather History & Observations

Time (EDT) Temp. Dew Point Humidity Pressure Visibility Wind Dir Wind Speed Gust Speed Precip Events Conditions
12:15 AM 55.8 °F 55.8 °F 100% 30.15 in 10.0 mi Calm Calm - N/A   Clear
12:35 AM 54.9 °F 54.9 °F 100% 30.15 in 10.0 mi Calm Calm - N/A   Clear
12:55 AM 55.2 °F 55.2 °F 100% 30.16 in 10.0 mi Calm Calm - N/A   Clear
1:15 AM 54.5 °F 54.5 °F 100% 30.16 in 10.0 mi Calm Calm - N/A   Clear
1:35 AM 53.8 °F 53.8 °F 100% 30.16 in 10.0 mi Calm Calm - N/A   Clear
1:55 AM 54.3 °F 54.3 °F 100% 30.16 in 10.0 mi Calm Calm - N/A   Clear
2:15 AM 54.5 °F 54.5 °F 100% 30.16 in 10.0 mi Calm Calm - N/A   Clear
2:35 AM 54.1 °F 54.1 °F 100% 30.17 in 10.0 mi Calm Calm - N/A   Clear
2:55 AM 53.6 °F 53.6 °F 100% 30.17 in 10.0 mi Calm Calm - N/A   Clear
3:15 AM 52.9 °F 52.9 °F 100% 30.17 in 7.0 mi Calm Calm - N/A   Clear
3:35 AM 52.7 °F 52.7 °F 100% 30.17 in 10.0 mi Calm Calm - N/A   Clear
3:55 AM 52.5 °F 52.5 °F 100% 30.18 in 10.0 mi Calm Calm - N/A   Clear
4:15 AM 52.9 °F 52.9 °F 100% 30.18 in 10.0 mi Calm Calm - N/A   Clear
4:35 AM 52.0 °F 52.0 °F 100% 30.18 in 10.0 mi Calm Calm - N/A   Clear
4:55 AM 52.5 °F 52.5 °F 100% 30.18 in 10.0 mi Calm Calm - N/A   Clear
5:15 AM 52.2 °F 52.2 °F 100% 30.18 in 10.0 mi Calm Calm - N/A   Clear
5:35 AM 52.2 °F 52.2 °F 100% 30.19 in 10.0 mi Calm Calm - N/A   Clear
5:55 AM 51.8 °F 51.8 °F 100% 30.19 in 10.0 mi Calm Calm - N/A   Clear
6:15 AM 51.4 °F 51.4 °F 100% 30.20 in 10.0 mi Calm Calm - N/A   Clear
6:35 AM 51.3 °F 51.3 °F 100% 30.20 in 10.0 mi Calm Calm - N/A   Clear
6:55 AM 52.2 °F 52.2 °F 100% 30.20 in 10.0 mi Calm Calm - N/A   Clear
7:15 AM 52.0 °F 52.0 °F 100% 30.21 in 10.0 mi Calm Calm - N/A   Clear
7:35 AM 51.8 °F 51.8 °F 100% 30.22 in 10.0 mi Calm Calm - N/A   Clear
7:55 AM 53.1 °F 53.1 °F 100% 30.22 in 10.0 mi Calm Calm - N/A   Clear
8:15 AM 54.5 °F 54.5 °F 100% 30.22 in 10.0 mi Calm Calm - N/A   Clear
8:35 AM 56.1 °F 54.9 °F 96% 30.23 in 10.0 mi Calm Calm - N/A   Clear
8:55 AM 57.2 °F 55.6 °F 94% 30.23 in 10.0 mi Calm Calm - N/A   Scattered Clouds
9:15 AM 58.6 °F 56.8 °F 94% 30.24 in 10.0 mi Calm Calm - N/A   Overcast
9:35 AM 59.7 °F 59.7 °F 100% 30.23 in 10.0 mi Calm Calm - N/A   Overcast
9:55 AM 61.5 °F 59.4 °F 93% 30.24 in 10.0 mi Calm Calm - N/A   Scattered Clouds
10:15 AM 63.7 °F 59.2 °F 85% 30.25 in 10.0 mi Calm Calm - N/A   Clear
10:35 AM 66.0 °F 60.1 °F 81% 30.25 in 10.0 mi ESE 3.5 mph - N/A   Clear
10:55 AM 68.0 °F 60.3 °F 76% 30.25 in 10.0 mi Calm Calm - N/A   Clear
11:15 AM 69.3 °F 59.9 °F 72% 30.25 in 10.0 mi Calm Calm - N/A   Clear
11:35 AM 70.3 °F 59.0 °F 67% 30.24 in 10.0 mi Calm Calm - N/A   Clear
11:55 AM 71.8 °F 58.1 °F 62% 30.24 in 10.0 mi East 4.6 mph - N/A   Clear
12:15 PM 72.5 °F 58.3 °F 61% 30.24 in 10.0 mi East 4.6 mph - N/A   Clear
12:35 PM 73.0 °F 59.5 °F 62% 30.23 in 10.0 mi Calm Calm - N/A   Clear
12:55 PM 73.8 °F 59.2 °F 60% 30.22 in 10.0 mi East 4.6 mph - N/A   Scattered Clouds
1:15 PM 75.0 °F 59.5 °F 58% 30.21 in 10.0 mi SE 3.5 mph - N/A   Scattered Clouds
1:35 PM 74.3 °F 59.4 °F 60% 30.21 in 10.0 mi ESE 4.6 mph - N/A   Scattered Clouds
1:55 PM 74.1 °F 59.5 °F 60% 30.21 in 10.0 mi South 3.5 mph - N/A   Scattered Clouds
2:15 PM 73.6 °F 59.9 °F 62% 30.20 in 10.0 mi Calm Calm - N/A   Scattered Clouds
2:35 PM 74.3 °F 59.5 °F 60% 30.20 in 10.0 mi SSE 3.5 mph - N/A   Scattered Clouds
2:55 PM 75.6 °F 59.7 °F 58% 30.19 in 10.0 mi Calm Calm - N/A   Clear
3:15 PM 76.3 °F 61.0 °F 59% 30.18 in 10.0 mi Calm Calm - N/A   Scattered Clouds
3:35 PM 77.4 °F 60.6 °F 56% 30.17 in 10.0 mi Calm Calm - N/A   Scattered Clouds
3:55 PM 78.1 °F 61.0 °F 56% 30.16 in 10.0 mi Calm Calm - N/A   Scattered Clouds
4:15 PM 77.4 °F 60.6 °F 56% 30.16 in 10.0 mi Calm Calm - N/A   Clear
4:35 PM 77.5 °F 61.2 °F 57% 30.15 in 10.0 mi SSW 3.5 mph - N/A   Clear
4:55 PM 76.8 °F 60.6 °F 57% 30.15 in 10.0 mi Calm Calm - N/A   Clear
5:15 PM 76.6 °F 61.2 °F 59% 30.14 in 10.0 mi Calm Calm - N/A   Clear
5:35 PM 76.1 °F 62.1 °F 62% 30.14 in 10.0 mi Calm Calm - N/A   Clear
5:55 PM 76.1 °F 61.3 °F 60% 30.14 in 10.0 mi Calm Calm - N/A   Clear
6:15 PM 72.9 °F 63.9 °F 73% 30.14 in 10.0 mi Calm Calm - N/A   Clear
6:35 PM 70.9 °F 63.5 °F 77% 30.14 in 10.0 mi Calm Calm - N/A   Clear
6:55 PM 68.9 °F 63.7 °F 83% 30.14 in 10.0 mi Calm Calm - N/A   Clear
7:15 PM 68.2 °F 63.1 °F 84% 30.13 in 10.0 mi Calm Calm - N/A   Clear
7:35 PM 66.4 °F 63.1 °F 89% 30.14 in 10.0 mi Calm Calm - N/A   Clear
7:55 PM 66.4 °F 63.5 °F 90% 30.14 in 10.0 mi Calm Calm - N/A   Clear
8:15 PM 66.2 °F 65.5 °F 98% 30.15 in 10.0 mi Calm Calm - N/A   Clear
8:35 PM 64.9 °F 64.9 °F 100% 30.15 in 10.0 mi Calm Calm - N/A   Clear
8:55 PM 64.6 °F 64.6 °F 100% 30.15 in 10.0 mi Calm Calm - N/A   Clear
9:15 PM 64.4 °F 64.4 °F 100% 30.16 in 10.0 mi Calm Calm - N/A   Clear
9:35 PM 64.2 °F 64.2 °F 100% 30.16 in 10.0 mi Calm Calm - N/A   Clear
9:55 PM 63.9 °F 63.9 °F 100% 30.16 in 7.0 mi Calm Calm - N/A   Clear
10:15 PM 63.5 °F 63.5 °F 100% 30.16 in 7.0 mi Calm Calm - N/A   Clear
10:35 PM 63.5 °F 63.5 °F 100% 30.16 in 5.0 mi Calm Calm - N/A   Clear
10:55 PM 63.0 °F 63.0 °F 100% 30.16 in 7.0 mi Calm Calm - N/A   Scattered Clouds
11:15 PM 63.3 °F 63.3 °F 100% 30.16 in 7.0 mi Calm Calm - N/A   Scattered Clouds
11:35 PM 63.3 °F 63.3 °F 100% 30.16 in 5.0 mi Calm Calm - N/A   Scattered Clouds
11:55 PM 63.0 °F 63.0 °F 100% 30.16 in 5.0 mi Calm Calm - N/A   Scattered Clouds